SCP
0 0 0 0 0 0 0 0 0 0 0 0 0 0 0 0 0 0 0 0 0 0 0 0 0 0 0 0 0 0 0 0
0 0 0 0 0 0 0 0 0 0 0 0 0 0 0 0 0 0 0 0 0 0 0 0 0 0 0 0 0 0 0 0
0 0 0 0 0 0 0 0 0 0 0 0 0 0 0 0 0 0 0 0 0 0 0 0 0 0 0 0 0 0 0 0
0 0 0 0 0 0 0 0 0 0 0 0 0 0 0 0 0 0 0 0 0 0 0 0 0 0 0 0 0 0 0 0
0 0 0 0 0 0 0 0 0 0 0 0 0 0 0 0 0 0 0 0 0 0 0 0 0 0 0 0 0 0 0 0
0 0 0 0 0 0 0 0 0 0 0 0 0 0 0 0 0 0 0 0 0 0 0 0 0 0 0 0 0 0 0 0
0 0 0 0 0 0 0 0 0 0 0 0 0 0 0 0 0 0 0 0 0 0 0 0 0 0 0 0 0 0 0 0
0 0 0 0 0 0 0 0 0 0 0 0 0 0 0 0 0 0 0 0 0 0 0 0 0 0 0 0 0 0 0 0
0 0 0 0 0 0 0 0 0 0 0 0 0 0 0 0 0 0 0 0 0 0 0 0 0 0 0 0 0 0 0 0
0 0 0 0 0 0 0 0 0 0 0 0 0 0 0 0 0 0 0 0 0 0 0 0 0 0 0 0 0 0 0 0
0 0 0 0 0 0 0 0 0 0 0 0 0 0 0 0 0 0 0 0 0 0 0 0 0 0 0 0 0 0 0 0
0 0 0 0 0 0 0 0 0 0 0 0 0 0 0 0 0 0 0 0 0 0 0 0 0 0 0 0 0 0 0 0
0 0 0 0 0 0 0 0 0 0 0 0 0 0 0 0 0 0 0 0 0 0 0 0 0 0 0 0 0 0 0 0
0 0 0 0 0 0 0 0 0 0 0 0 0 0 0 0 0 0 0 0 0 0 0 0 0 0 0 0 0 0 0 0
0 0 0 0 0 0 0 0 0 0 0 0 0 0 0 0 0 0 0 0 0 0 0 0 0 0 0 0 0 0 0 0
0 0 0 0 0 0 0 0 0 0 0 0 0 0 0 0 0 0 0 0 0 0 0 0 0 0 0 0 0 0 0 0
0 0 0 0 0 0 0 0 0 0 0 0 0 0 0 0 0 0 0 0 0 0 0 0 0 0 0 0 0 0 0 0
0 0 0 0 0 0 0 0 0 0 0 0 0 0 0 0 0 0 0 0 0 0 0 0 0 0 0 0 0 0 0 0
0 0 0 0 0 0 0 0 0 0 0 0 0 0 0 0 0 0 0 0 0 0 0 0 0 0 0 0 0 0 0 0
0 0 0 0 0 0 0 0 0 0 0 0 0 0 0 0 0 0 0 0 0 0 0 0 0 0 0 0 0 0 0 0
Wind_Speed_500mb
36 37 37 37 36 34 33 31 31 32 34 34 34 34 35 38 39 39 40 40 40 37 39 39 40 39 38 38 36 36 33 33
36 37 37 32 29 27 26 27 29 30 32 32 32 34 35 35 36 36 37 38 37 35 35 34 34 32 34 34 35 35 33 32
39 35 33 29 25 22 22 23 25 28 31 31 32 33 34 34 35 34 33 32 31 30 32 33 32 33 34 34 34 34 32 30
38 35 29 24 20 19 20 21 23 25 28 30 31 32 32 33 34 34 34 32 29 30 31 31 31 32 33 34 33 32 31 31
36 30 24 20 19 18 20 22 24 25 25 26 30 32 32 33 33 33 33 32 29 31 32 30 29 29 31 32 33 33 32 32
34 27 22 19 19 20 21 21 22 24 26 27 28 31 34 34 35 34 33 32 30 29 32 33 32 31 31 32 32 32 32 33
32 27 23 23 24 26 27 28 27 27 26 27 29 31 32 35 37 37 36 34 35 33 32 34 33 29 28 31 33 33 35 36
31 26 24 21 20 22 25 28 30 30 30 29 29 30 32 33 36 37 38 39 39 38 39 38 36 32 31 32 36 37 40 42
30 26 23 19 20 23 23 24 25 27 28 29 29 30 32 33 35 36 38 40 42 43 43 44 43 40 39 40 44 48 49 50
28 23 19 18 18 18 18 18 19 21 23 25 27 27 28 29 31 34 36 38 41 43 44 47 47 45 46 47 53 57 58 58
23 17 15 15 14 14 14 15 15 18 21 22 23 23 24 25 27 28 31 32 35 37 39 42 44 44 47 50 53 60 63 65
16 14 13 12 11 12 13 14 15 17 18 19 21 20 20 21 23 24 26 27 28 31 31 33 36 36 36 41 48 55 59 61
18 15 12 10 10 10 11 13 14 15 16 17 17 18 18 19 21 21 22 23 23 24 23 23 24 26 25 27 32 35 43 49
16 14 11 9 6 7 8 10 13 14 14 14 16 17 17 17 18 19 19 19 19 19 19 19 21 20 19 18 21 25 31 37
13 10 7 4 3 3 4 7 10 13 14 14 15 17 18 18 18 19 19 19 18 17 18 19 19 15 15 17 20 22 26 30
12 8 5 2 2 3 4 6 9 11 13 13 14 16 16 17 19 19 19 20 20 18 19 20 21 19 19 20 23 28 31 35
13 9 6 1 2 4 5 8 10 11 12 14 15 16 16 17 17 19 19 19 20 20 21 21 24 24 22 23 23 25 26 26
10 7 5 2 3 7 6 8 10 12 14 15 16 18 19 19 21 21 21 22 21 22 22 24 25 26 28 28 27 25 26 26
9 6 6 7 7 7 10 12 14 17 18 20 21 22 24 25 26 27 29 28 26 27 30 30 32 33 34 37 37 34 33 33
9 9 9 9 11 15 19 23 25 27 29 31 32 32 33 34 35 36 37 38 39 37 34 37 39 40 40 42 45 44 42 41
Wind_Direction_500mb
177 183 191 197 206 212 220 227 235 243 249 254 260 265 266 267 269 270 270 269 271 269 268 266 265 262 258 253 251 250 250 253
176 183 189 193 201 210 222 232 239 244 249 254 260 264 267 269 270 269 269 269 268 267 266 265 262 258 254 252 247 247 247 250
178 178 180 186 195 209 223 236 245 251 253 256 258 262 267 270 270 270 269 265 265 265 266 264 264 260 254 254 250 247 245 243
176 178 181 188 201 218 233 243 248 251 254 256 258 261 264 267 269 269 267 264 262 267 267 266 262 257 254 253 248 246 242 235
179 181 188 200 218 235 245 250 254 254 256 257 258 258 260 262 265 266 266 264 265 269 269 264 259 254 252 251 248 243 237 231
182 186 198 217 232 240 247 251 257 259 258 257 258 258 257 258 261 262 263 266 264 266 271 270 261 254 251 250 248 246 238 235
190 199 218 234 244 251 255 257 260 264 265 263 262 261 260 256 256 259 262 264 264 263 263 266 269 267 258 254 251 246 244 248
203 215 226 234 244 255 259 262 263 266 267 267 266 263 261 260 261 262 262 262 264 264 265 267 265 263 261 257 254 251 254 255
205 209 216 234 253 262 265 265 266 268 270 270 269 267 266 266 266 265 265 266 267 266 264 264 264 263 260 258 259 260 261 262
198 207 229 250 256 261 263 264 266 270 273 275 276 273 272 272 271 271 270 270 270 270 270 270 269 265 262 260 260 261 262 264
194 213 233 238 246 253 257 265 270 277 282 284 284 283 281 279 277 276 276 276 275 275 274 273 273 269 265 262 258 260 262 263
193 201 213 224 238 246 258 265 278 284 287 288 288 290 290 289 287 286 285 285 282 281 279 277 275 274 270 267 263 263 265 267
186 190 202 222 235 254 268 287 292 293 292 293 297 299 301 300 297 295 294 293 290 288 288 286 282 283 279 272 271 270 267 270
184 186 195 211 234 263 288 301 304 299 300 303 307 309 308 310 309 305 304 300 298 298 300 298 293 289 286 281 281 273 269 273
181 176 182 190 228 277 307 311 302 306 305 309 310 308 311 315 314 312 309 304 298 301 302 300 303 301 295 298 292 287 285 286
166 159 167 213 290 352 344 332 329 330 320 321 317 315 317 317 316 314 309 304 301 297 294 299 295 295 298 304 298 292 286 284
173 170 171 134 354 333 341 355 354 347 340 335 330 322 319 318 314 313 311 308 308 303 296 287 301 310 308 309 311 313 316 314
164 170 174 171 250 271 324 344 340 338 336 332 328 322 322 320 316 312 309 308 307 305 300 298 301 304 304 306 305 304 305 304
180 197 212 231 258 299 313 314 314 313 314 314 312 312 313 313 313 311 310 307 302 298 296 294 294 295 296 298 298 299 298 299
218 233 249 274 297 299 301 303 302 302 302 301 301 301 302 302 302 302 302 302 302 300 295 292 291 290 289 290 291 292 292 291
Wind_Speed_850mb
36 37 37 37 36 34 33 31 31 32 34 34 34 34 35 38 39 39 40 40 40 37 39 39 40 39 38 38 36 36 33 33
36 37 37 32 29 27 26 27 29 30 32 32 32 34 35 35 36 36 37 38 37 35 35 34 34 32 34 34 35 35 33 32
39 35 33 29 25 22 22 23 25 28 31 31 32 33 34 34 35 34 33 32 31 30 32 33 32 33 34 34 34 34 32 30
38 35 29 24 20 19 20 21 23 25 28 30 31 32 32 33 34 34 34 32 29 30 31 31 31 32 33 34 33 32 31 31
36 30 24 20 19 18 20 22 24 25 25 26 30 32 32 33 33 33 33 32 29 31 32 30 29 29 31 32 33 33 32 32
34 27 22 19 19 20 21 21 22 24 26 27 28 31 34 34 35 34 33 32 30 29 32 33 32 31 31 32 32 32 32 33
32 27 23 23 24 26 27 28 27 27 26 27 29 31 32 35 37 37 36 34 35 33 32 34 33 29 28 31 33 33 35 36
31 26 24 21 20 22 25 28 30 30 30 29 29 30 32 33 36 37 38 39 39 38 39 38 36 32 31 32 36 37 40 42
30 26 23 19 20 23 23 24 25 27 28 29 29 30 32 33 35 36 38 40 42 43 43 44 43 40 39 40 44 48 49 50
28 23 19 18 18 18 18 18 19 21 23 25 27 27 28 29 31 34 36 38 41 43 44 47 47 45 46 47 53 57 58 58
23 17 15 15 14 14 14 15 15 18 21 22 23 23 24 25 27 28 31 32 35 37 39 42 44 44 47 50 53 60 63 65
16 14 13 12 11 12 13 14 15 17 18 19 21 20 20 21 23 24 26 27 28 31 31 33 36 36 36 41 48 55 59 61
18 15 12 10 10 10 11 13 14 15 16 17 17 18 18 19 21 21 22 23 23 24 23 23 24 26 25 27 32 35 43 49
16 14 11 9 6 7 8 10 13 14 14 14 16 17 17 17 18 19 19 19 19 19 19 19 21 20 19 18 21 25 31 37
13 10 7 4 3 3 4 7 10 13 14 14 15 17 18 18 18 19 19 19 18 17 18 19 19 15 15 17 20 22 26 30
12 8 5 2 2 3 4 6 9 11 13 13 14 16 16 17 19 19 19 20 20 18 19 20 21 19 19 20 23 28 31 35
13 9 6 1 2 4 5 8 10 11 12 14 15 16 16 17 17 19 19 19 20 20 21 21 24 24 22 23 23 25 26 26
10 7 5 2 3 7 6 8 10 12 14 15 16 18 19 19 21 21 21 22 21 22 22 24 25 26 28 28 27 25 26 26
9 6 6 7 7 7 10 12 14 17 18 20 21 22 24 25 26 27 29 28 26 27 30 30 32 33 34 37 37 34 33 33
9 9 9 9 11 15 19 23 25 27 29 31 32 32 33 34 35 36 37 38 39 37 34 37 39 40 40 42 45 44 42 41
Wind_Direction_850mb
177 183 191 197 206 212 220 227 235 243 249 254 260 265 266 267 269 270 270 269 271 269 268 266 265 262 258 253 251 250 250 253
176 183 189 193 201 210 222 232 239 244 249 254 260 264 267 269 270 269 269 269 268 267 266 265 262 258 254 252 247 247 247 250
178 178 180 186 195 209 223 236 245 251 253 256 258 262 267 270 270 270 269 265 265 265 266 264 264 260 254 254 250 247 245 243
176 178 181 188 201 218 233 243 248 251 254 256 258 261 264 267 269 269 267 264 262 267 267 266 262 257 254 253 248 246 242 235
179 181 188 200 218 235 245 250 254 254 256 257 258 258 260 262 265 266 266 264 265 269 269 264 259 254 252 251 248 243 237 231
182 186 198 217 232 240 247 251 257 259 258 257 258 258 257 258 261 262 263 266 264 266 271 270 261 254 251 250 248 246 238 235
190 199 218 234 244 251 255 257 260 264 265 263 262 261 260 256 256 259 262 264 264 263 263 266 269 267 258 254 251 246 244 248
203 215 226 234 244 255 259 262 263 266 267 267 266 263 261 260 261 262 262 262 264 264 265 267 265 263 261 257 254 251 254 255
205 209 216 234 253 262 265 265 266 268 270 270 269 267 266 266 266 265 265 266 267 266 264 264 264 263 260 258 259 260 261 262
198 207 229 250 256 261 263 264 266 270 273 275 276 273 272 272 271 271 270 270 270 270 270 270 269 265 262 260 260 261 262 264
194 213 233 238 246 253 257 265 270 277 282 284 284 283 281 279 277 276 276 276 275 275 274 273 273 269 265 262 258 260 262 263
193 201 213 224 238 246 258 265 278 284 287 288 288 290 290 289 287 286 285 285 282 281 279 277 275 274 270 267 263 263 265 267
186 190 202 222 235 254 268 287 292 293 292 293 297 299 301 300 297 295 294 293 290 288 288 286 282 283 279 272 271 270 267 270
184 186 195 211 234 263 288 301 304 299 300 303 307 309 308 310 309 305 304 300 298 298 300 298 293 289 286 281 281 273 269 273
181 176 182 190 228 277 307 311 302 306 305 309 310 308 311 315 314 312 309 304 298 301 302 300 303 301 295 298 292 287 285 286
166 159 167 213 290 352 344 332 329 330 320 321 317 315 317 317 316 314 309 304 301 297 294 299 295 295 298 304 298 292 286 284
173 170 171 134 354 333 341 355 354 347 340 335 330 322 319 318 314 313 311 308 308 303 296 287 301 310 308 309 311 313 316 314
164 170 174 171 250 271 324 344 340 338 336 332 328 322 322 320 316 312 309 308 307 305 300 298 301 304 304 306 305 304 305 304
180 197 212 231 258 299 313 314 314 313 314 314 312 312 313 313 313 311 310 307 302 298 296 294 294 295 296 298 298 299 298 299
218 233 249 274 297 299 301 303 302 302 302 301 301 301 302 302 302 302 302 302 302 300 295 292 291 290 289 290 291 292 292 291